Year,Month,Day,Hour,Minute,Value (Times are PST for temperature in C)
2012,06,25,00,00,9.20
2012,06,25,00,01,9.20
2012,06,25,00,02,9.20
2012,06,25,00,03,9.20
2012,06,25,00,04,9.20
2012,06,25,00,05,9.20
2012,06,25,00,06,9.20
2012,06,25,00,07,9.30
2012,06,25,00,08,9.30
2012,06,25,00,09,9.30
2012,06,25,00,10,9.30
2012,06,25,00,11,9.30
2012,06,25,00,12,9.30
2012,06,25,00,13,9.30
2012,06,25,00,14,9.30
2012,06,25,00,15,9.30
2012,06,25,00,16,9.30
2012,06,25,00,17,9.30
2012,06,25,00,18,9.20
2012,06,25,00,19,9.20
2012,06,25,00,20,9.20
2012,06,25,00,21,9.10
2012,06,25,00,22,9.10
2012,06,25,00,23,9.10
2012,06,25,00,24,9.00
2012,06,25,00,25,8.90
2012,06,25,00,26,8.90
2012,06,25,00,27,8.80
2012,06,25,00,28,8.70
2012,06,25,00,29,8.70
2012,06,25,00,30,8.70
2012,06,25,00,31,8.60
2012,06,25,00,32,8.60
2012,06,25,00,33,8.50
2012,06,25,00,34,8.50
2012,06,25,00,35,8.50
2012,06,25,00,36,8.40
2012,06,25,00,37,8.40
2012,06,25,00,38,8.30
2012,06,25,00,39,8.30
2012,06,25,00,40,8.30
2012,06,25,00,41,8.20
2012,06,25,00,42,8.20
2012,06,25,00,43,8.20
2012,06,25,00,44,8.20
2012,06,25,00,45,8.10
2012,06,25,00,46,8.10
2012,06,25,00,47,8.10
2012,06,25,00,48,8.00
2012,06,25,00,49,8.00
2012,06,25,00,50,7.90
2012,06,25,00,51,7.90
2012,06,25,00,52,7.90
2012,06,25,00,53,7.90
2012,06,25,00,54,7.80
2012,06,25,00,55,7.80
2012,06,25,00,56,7.80
2012,06,25,00,57,7.80
2012,06,25,00,58,7.70
2012,06,25,00,59,7.70
2012,06,25,01,00,7.70
2012,06,25,01,01,7.70
2012,06,25,01,02,7.70
2012,06,25,01,03,7.70
2012,06,25,01,04,7.60
2012,06,25,01,05,7.60
2012,06,25,01,06,7.60
2012,06,25,01,07,7.60
2012,06,25,01,08,7.60
2012,06,25,01,09,7.50
2012,06,25,01,10,7.50
2012,06,25,01,11,7.50
2012,06,25,01,12,7.40
2012,06,25,01,13,7.40
2012,06,25,01,14,7.40
2012,06,25,01,15,7.40
2012,06,25,01,16,7.30
2012,06,25,01,17,7.30
2012,06,25,01,18,7.30
2012,06,25,01,19,7.30
2012,06,25,01,20,7.30
2012,06,25,01,21,7.30
2012,06,25,01,22,7.30
2012,06,25,01,23,7.20
2012,06,25,01,24,7.20
2012,06,25,01,25,7.20
2012,06,25,01,26,7.20
2012,06,25,01,27,7.20
2012,06,25,01,28,7.20
2012,06,25,01,29,7.20
2012,06,25,01,30,7.20
2012,06,25,01,31,7.20
2012,06,25,01,32,7.20
2012,06,25,01,33,7.20
2012,06,25,01,34,7.20
2012,06,25,01,35,7.10
2012,06,25,01,36,7.10
2012,06,25,01,37,7.10
2012,06,25,01,38,7.10
2012,06,25,01,39,7.10
2012,06,25,01,40,7.10
2012,06,25,01,41,7.10
2012,06,25,01,42,7.10
2012,06,25,01,43,7.10
2012,06,25,01,44,7.10
2012,06,25,01,45,7.10
2012,06,25,01,46,7.00
2012,06,25,01,47,7.00
2012,06,25,01,48,7.00
2012,06,25,01,49,7.00
2012,06,25,01,50,7.00
2012,06,25,01,51,6.90
2012,06,25,01,52,6.90
2012,06,25,01,53,6.90
2012,06,25,01,54,6.90
2012,06,25,01,55,6.90
2012,06,25,01,56,6.90
2012,06,25,01,57,6.80
2012,06,25,01,58,6.80
2012,06,25,01,59,6.80
2012,06,25,02,00,6.80
2012,06,25,02,01,6.80
2012,06,25,02,02,6.80
2012,06,25,02,03,6.80
2012,06,25,02,04,6.80
2012,06,25,02,05,6.80
2012,06,25,02,06,6.70
2012,06,25,02,07,6.70
2012,06,25,02,08,6.70
2012,06,25,02,09,6.70
2012,06,25,02,10,6.70
2012,06,25,02,11,6.70
2012,06,25,02,12,6.70
2012,06,25,02,13,6.70
2012,06,25,02,14,6.70
2012,06,25,02,15,6.70
2012,06,25,02,16,6.70
2012,06,25,02,17,6.70
2012,06,25,02,18,6.70
2012,06,25,02,19,6.70
2012,06,25,02,20,6.70
2012,06,25,02,21,6.70
2012,06,25,02,22,6.70
2012,06,25,02,23,6.70
2012,06,25,02,24,6.60
2012,06,25,02,25,6.70
2012,06,25,02,26,6.70
2012,06,25,02,27,6.70
2012,06,25,02,28,6.70
2012,06,25,02,29,6.70
2012,06,25,02,30,6.60
2012,06,25,02,31,6.60
2012,06,25,02,32,6.60
2012,06,25,02,33,6.60
2012,06,25,02,34,6.60
2012,06,25,02,35,6.60
2012,06,25,02,36,6.60
2012,06,25,02,37,6.50
2012,06,25,02,38,6.50
2012,06,25,02,39,6.50
2012,06,25,02,40,6.50
2012,06,25,02,41,6.40
2012,06,25,02,42,6.40
2012,06,25,02,43,6.40
2012,06,25,02,44,6.40
2012,06,25,02,45,6.40
2012,06,25,02,46,6.40
2012,06,25,02,47,6.30
2012,06,25,02,48,6.30
2012,06,25,02,49,6.30
2012,06,25,02,50,6.30
2012,06,25,02,51,6.30
2012,06,25,02,52,6.30
2012,06,25,02,53,6.30
2012,06,25,02,54,6.30
2012,06,25,02,55,6.30
2012,06,25,02,56,6.30
2012,06,25,02,57,6.30
2012,06,25,02,58,6.30
2012,06,25,02,59,6.30
2012,06,25,03,00,6.30
2012,06,25,03,01,6.30
2012,06,25,03,02,6.30
2012,06,25,03,03,6.30
2012,06,25,03,04,6.30
2012,06,25,03,05,6.30
2012,06,25,03,06,6.30
2012,06,25,03,07,6.30
2012,06,25,03,08,6.30
2012,06,25,03,09,6.30
2012,06,25,03,10,6.20
2012,06,25,03,11,6.20
2012,06,25,03,12,6.20
2012,06,25,03,13,6.20
2012,06,25,03,14,6.20
2012,06,25,03,15,6.20
2012,06,25,03,16,6.20
2012,06,25,03,17,6.20
2012,06,25,03,18,6.20
2012,06,25,03,19,6.20
2012,06,25,03,20,6.20
2012,06,25,03,21,6.20
2012,06,25,03,22,6.20
2012,06,25,03,23,6.20
2012,06,25,03,24,6.20
2012,06,25,03,25,6.20
2012,06,25,03,26,6.20
2012,06,25,03,27,6.20
2012,06,25,03,28,6.20
2012,06,25,03,29,6.20
2012,06,25,03,30,6.20
2012,06,25,03,31,6.20
2012,06,25,03,32,6.20
2012,06,25,03,33,6.20
2012,06,25,03,34,6.20
2012,06,25,03,35,6.20
2012,06,25,03,36,6.20
2012,06,25,03,37,6.10
2012,06,25,03,38,6.10
2012,06,25,03,39,6.10
2012,06,25,03,40,6.10
2012,06,25,03,41,6.10
2012,06,25,03,42,6.10
2012,06,25,03,43,6.10
2012,06,25,03,44,6.10
2012,06,25,03,45,6.10
2012,06,25,03,46,6.10
2012,06,25,03,47,6.10
2012,06,25,03,48,6.10
2012,06,25,03,49,6.10
2012,06,25,03,50,6.10
2012,06,25,03,51,6.10
2012,06,25,03,52,6.00
2012,06,25,03,53,6.10
2012,06,25,03,54,6.00
2012,06,25,03,55,6.00
2012,06,25,03,56,6.00
2012,06,25,03,57,6.00
2012,06,25,03,58,6.00
2012,06,25,03,59,6.00
2012,06,25,04,00,6.00
2012,06,25,04,01,5.90
2012,06,25,04,02,5.90
2012,06,25,04,03,5.90
2012,06,25,04,04,5.90
2012,06,25,04,05,5.90
2012,06,25,04,06,5.90
2012,06,25,04,07,5.90
2012,06,25,04,08,5.90
2012,06,25,04,09,5.90
2012,06,25,04,10,5.90
2012,06,25,04,11,5.80
2012,06,25,04,12,5.80
2012,06,25,04,13,5.80
2012,06,25,04,14,5.80
2012,06,25,04,15,5.80
2012,06,25,04,16,5.80
2012,06,25,04,17,5.80
2012,06,25,04,18,5.80
2012,06,25,04,19,5.80
2012,06,25,04,20,5.80
2012,06,25,04,21,5.80
2012,06,25,04,22,5.80
2012,06,25,04,23,5.80
2012,06,25,04,24,5.80
2012,06,25,04,25,5.80
2012,06,25,04,26,5.80
2012,06,25,04,27,5.80
2012,06,25,04,28,5.70
2012,06,25,04,29,5.70
2012,06,25,04,30,5.70
2012,06,25,04,31,5.70
2012,06,25,04,32,5.70
2012,06,25,04,33,5.70
2012,06,25,04,34,5.70
2012,06,25,04,35,5.70
2012,06,25,04,36,5.70
2012,06,25,04,37,5.70
2012,06,25,04,38,5.70
2012,06,25,04,39,5.70
2012,06,25,04,40,5.70
2012,06,25,04,41,5.70
2012,06,25,04,42,5.60
2012,06,25,04,43,5.60
2012,06,25,04,44,5.60
2012,06,25,04,45,5.60
2012,06,25,04,46,5.60
2012,06,25,04,47,5.60
2012,06,25,04,48,5.60
2012,06,25,04,49,5.60
2012,06,25,04,50,5.60
2012,06,25,04,51,5.60
2012,06,25,04,52,5.60
2012,06,25,04,53,5.60
2012,06,25,04,54,5.60
2012,06,25,04,55,5.60
2012,06,25,04,56,5.60
2012,06,25,04,57,5.60
2012,06,25,04,58,5.60
2012,06,25,04,59,5.60
2012,06,25,05,00,5.60
2012,06,25,05,01,5.60
2012,06,25,05,02,5.50
2012,06,25,05,03,5.50
2012,06,25,05,04,5.50
2012,06,25,05,05,5.50
2012,06,25,05,06,5.50
2012,06,25,05,07,5.50
2012,06,25,05,08,5.50
2012,06,25,05,09,5.40
2012,06,25,05,10,5.40
2012,06,25,05,11,5.40
2012,06,25,05,12,5.40
2012,06,25,05,13,5.40
2012,06,25,05,14,5.40
2012,06,25,05,15,5.40
2012,06,25,05,16,5.40
2012,06,25,05,17,5.40
2012,06,25,05,18,5.40
2012,06,25,05,19,5.30
2012,06,25,05,20,5.30
2012,06,25,05,21,5.30
2012,06,25,05,22,5.30
2012,06,25,05,23,5.30
2012,06,25,05,24,5.30
2012,06,25,05,25,5.30
2012,06,25,05,26,5.30
2012,06,25,05,27,5.30
2012,06,25,05,28,5.30
2012,06,25,05,29,5.30
2012,06,25,05,30,5.30
2012,06,25,05,31,5.30
2012,06,25,05,32,5.20
2012,06,25,05,33,5.20
2012,06,25,05,34,5.20
2012,06,25,05,35,5.20
2012,06,25,05,36,5.20
2012,06,25,05,37,5.20
2012,06,25,05,38,5.20
2012,06,25,05,39,5.20
2012,06,25,05,40,5.20
2012,06,25,05,41,5.20
2012,06,25,05,42,5.20
2012,06,25,05,43,5.20
2012,06,25,05,44,5.20
2012,06,25,05,45,5.20
2012,06,25,05,46,5.20
2012,06,25,05,47,5.20
2012,06,25,05,48,5.20
2012,06,25,05,49,5.20
2012,06,25,05,50,5.20
2012,06,25,05,51,5.20
2012,06,25,05,52,5.20
2012,06,25,05,53,5.20
2012,06,25,05,54,5.20
2012,06,25,05,55,5.20
2012,06,25,05,56,5.20
2012,06,25,05,57,5.20
2012,06,25,05,58,5.20
2012,06,25,05,59,5.20
2012,06,25,06,00,5.20
2012,06,25,06,01,5.20
2012,06,25,06,02,5.20
2012,06,25,06,03,5.20
2012,06,25,06,04,5.20
2012,06,25,06,05,5.20
2012,06,25,06,06,5.20
2012,06,25,06,07,5.20
2012,06,25,06,08,5.20
2012,06,25,06,09,5.20
2012,06,25,06,10,5.20
2012,06,25,06,11,5.20
2012,06,25,06,12,5.20
2012,06,25,06,13,5.20
2012,06,25,06,14,5.20
2012,06,25,06,15,5.20
2012,06,25,06,16,5.20
2012,06,25,06,17,5.20
2012,06,25,06,18,5.20
2012,06,25,06,19,5.20
2012,06,25,06,20,5.20
2012,06,25,06,21,5.20
2012,06,25,06,22,5.20
2012,06,25,06,23,5.20
2012,06,25,06,24,5.20
2012,06,25,06,25,5.20
2012,06,25,06,26,5.20
2012,06,25,06,27,5.20
2012,06,25,06,28,5.20
2012,06,25,06,29,5.20
2012,06,25,06,30,5.20
2012,06,25,06,31,5.20
2012,06,25,06,32,5.20
2012,06,25,06,33,5.20
2012,06,25,06,34,5.20
2012,06,25,06,35,5.20
2012,06,25,06,36,5.20
2012,06,25,06,37,5.20
2012,06,25,06,38,5.20
2012,06,25,06,39,5.20
2012,06,25,06,40,5.20
2012,06,25,06,41,5.20
2012,06,25,06,42,5.20
2012,06,25,06,43,5.30
2012,06,25,06,44,5.30
2012,06,25,06,45,5.30
2012,06,25,06,46,5.30
2012,06,25,06,47,5.30
2012,06,25,06,48,5.30
2012,06,25,06,49,5.30
2012,06,25,06,50,5.30
2012,06,25,06,51,5.30
2012,06,25,06,52,5.40
2012,06,25,06,53,5.40
2012,06,25,06,54,5.40
2012,06,25,06,55,5.40
2012,06,25,06,56,5.40
2012,06,25,06,57,5.50
2012,06,25,06,58,5.50
2012,06,25,06,59,5.50
2012,06,25,07,00,5.60
2012,06,25,07,01,5.60
2012,06,25,07,02,5.60
2012,06,25,07,03,5.70
2012,06,25,07,04,5.70
2012,06,25,07,05,5.80
2012,06,25,07,06,5.80
2012,06,25,07,07,5.90
2012,06,25,07,08,5.90
2012,06,25,07,09,6.00
2012,06,25,07,10,6.00
2012,06,25,07,11,6.10
2012,06,25,07,12,6.10
2012,06,25,07,13,6.10
2012,06,25,07,14,6.20
2012,06,25,07,15,6.20
2012,06,25,07,16,6.20
2012,06,25,07,17,6.30
2012,06,25,07,18,6.30
2012,06,25,07,19,6.40
2012,06,25,07,20,6.60
2012,06,25,07,21,6.60
2012,06,25,07,22,6.70
2012,06,25,07,23,6.80
2012,06,25,07,24,6.90
2012,06,25,07,25,7.00
2012,06,25,07,26,7.00
2012,06,25,07,27,7.20
2012,06,25,07,28,7.30
2012,06,25,07,29,7.40
2012,06,25,07,30,7.50
2012,06,25,07,31,7.60
2012,06,25,07,32,7.70
2012,06,25,07,33,7.80
2012,06,25,07,34,7.80
2012,06,25,07,35,7.90
2012,06,25,07,36,7.90
2012,06,25,07,37,8.00
2012,06,25,07,38,8.00
2012,06,25,07,39,8.10
2012,06,25,07,40,8.10
2012,06,25,07,41,8.20
2012,06,25,07,42,8.20
2012,06,25,07,43,8.20
2012,06,25,07,44,8.30
2012,06,25,07,45,8.30
2012,06,25,07,46,8.40
2012,06,25,07,47,8.40
2012,06,25,07,48,8.40
2012,06,25,07,49,8.50
2012,06,25,07,50,8.60
2012,06,25,07,51,8.60
2012,06,25,07,52,8.70
2012,06,25,07,53,8.70
2012,06,25,07,54,8.80
2012,06,25,07,55,8.80
2012,06,25,07,56,8.90
2012,06,25,07,57,9.00
2012,06,25,07,58,9.10
2012,06,25,07,59,9.20
2012,06,25,08,00,9.30
2012,06,25,08,01,9.40
2012,06,25,08,02,9.50
2012,06,25,08,03,9.60
2012,06,25,08,04,9.60
2012,06,25,08,05,9.80
2012,06,25,08,06,9.90
2012,06,25,08,07,10.00
2012,06,25,08,08,10.10
2012,06,25,08,09,10.20
2012,06,25,08,10,10.30
2012,06,25,08,11,10.30
2012,06,25,08,12,10.40
2012,06,25,08,13,10.40
2012,06,25,08,14,10.50
2012,06,25,08,15,10.60
2012,06,25,08,16,10.60
2012,06,25,08,17,10.70
2012,06,25,08,18,10.80
2012,06,25,08,19,10.80
2012,06,25,08,20,10.90
2012,06,25,08,21,11.00
2012,06,25,08,22,11.10
2012,06,25,08,23,11.20
2012,06,25,08,24,11.30
2012,06,25,08,25,11.40
2012,06,25,08,26,11.50
2012,06,25,08,27,11.60
2012,06,25,08,28,11.70
2012,06,25,08,29,11.80
2012,06,25,08,30,11.90
2012,06,25,08,31,11.90
2012,06,25,08,32,12.00
2012,06,25,08,33,12.00
2012,06,25,08,34,12.00
2012,06,25,08,35,12.00
2012,06,25,08,36,12.00
2012,06,25,08,37,12.00
2012,06,25,08,38,12.10
2012,06,25,08,39,12.10
2012,06,25,08,40,12.10
2012,06,25,08,41,12.20
2012,06,25,08,42,12.20
2012,06,25,08,43,12.20
2012,06,25,08,44,12.20
2012,06,25,08,45,12.30
2012,06,25,08,46,12.30
2012,06,25,08,47,12.30
2012,06,25,08,48,12.30
2012,06,25,08,49,12.30
2012,06,25,08,50,12.30
2012,06,25,08,51,12.40
2012,06,25,08,52,12.40
2012,06,25,08,53,12.50
2012,06,25,08,54,12.50
2012,06,25,08,55,12.60
2012,06,25,08,56,12.70
2012,06,25,08,57,12.70
2012,06,25,08,58,12.70
2012,06,25,08,59,12.80
2012,06,25,09,00,12.90
2012,06,25,09,01,12.90
2012,06,25,09,02,13.00
2012,06,25,09,03,13.10
2012,06,25,09,04,13.10
2012,06,25,09,05,13.10
2012,06,25,09,06,13.20
2012,06,25,09,07,13.20
2012,06,25,09,08,13.20
2012,06,25,09,09,13.20
2012,06,25,09,10,13.20
2012,06,25,09,11,13.20
2012,06,25,09,12,13.20
2012,06,25,09,13,13.10
2012,06,25,09,14,13.10
2012,06,25,09,15,13.10
2012,06,25,09,16,13.20
2012,06,25,09,17,13.20
2012,06,25,09,18,13.30
2012,06,25,09,19,13.30
2012,06,25,09,20,13.40
2012,06,25,09,21,13.40
2012,06,25,09,22,13.50
2012,06,25,09,23,13.50
2012,06,25,09,24,13.60
2012,06,25,09,25,13.70
2012,06,25,09,26,13.70
2012,06,25,09,27,13.80
2012,06,25,09,28,13.90
2012,06,25,09,29,13.90
2012,06,25,09,30,13.90
2012,06,25,09,31,13.90
2012,06,25,09,32,13.90
2012,06,25,09,33,13.90
2012,06,25,09,34,13.90
2012,06,25,09,35,14.00
2012,06,25,09,36,14.00
2012,06,25,09,37,14.10
2012,06,25,09,38,14.20
2012,06,25,09,39,14.30
2012,06,25,09,40,14.40
2012,06,25,09,41,14.50
2012,06,25,09,42,14.60
2012,06,25,09,43,14.70
2012,06,25,09,44,14.70
2012,06,25,09,45,14.80
2012,06,25,09,46,14.80
2012,06,25,09,47,14.80
2012,06,25,09,48,14.80
2012,06,25,09,49,14.90
2012,06,25,09,50,15.00
2012,06,25,09,51,15.00
2012,06,25,09,52,15.00
2012,06,25,09,53,15.00
2012,06,25,09,54,15.10
2012,06,25,09,55,15.30
2012,06,25,09,56,15.40
2012,06,25,09,57,15.50
2012,06,25,09,58,15.60
2012,06,25,09,59,15.70
2012,06,25,10,00,15.80
2012,06,25,10,01,15.90
2012,06,25,10,02,16.00
2012,06,25,10,03,16.10
2012,06,25,10,04,16.20
2012,06,25,10,05,16.20
2012,06,25,10,06,16.20
2012,06,25,10,07,16.20
2012,06,25,10,08,16.20
2012,06,25,10,09,16.10
2012,06,25,10,10,16.00
2012,06,25,10,11,15.90
2012,06,25,10,12,15.80
2012,06,25,10,13,15.80
2012,06,25,10,14,15.70
2012,06,25,10,15,15.70
2012,06,25,10,16,15.70
2012,06,25,10,17,15.70
2012,06,25,10,18,15.70
2012,06,25,10,19,15.80
2012,06,25,10,20,16.00
2012,06,25,10,21,16.00
2012,06,25,10,22,16.10
2012,06,25,10,23,16.10
2012,06,25,10,24,16.20
2012,06,25,10,25,16.20
2012,06,25,10,26,16.20
2012,06,25,10,27,16.20
2012,06,25,10,28,16.30
2012,06,25,10,29,16.40
2012,06,25,10,30,16.60
2012,06,25,10,31,16.60
2012,06,25,10,32,16.60
2012,06,25,10,33,16.60
2012,06,25,10,34,16.60
2012,06,25,10,35,16.60
2012,06,25,10,36,16.70
2012,06,25,10,37,16.80
2012,06,25,10,38,16.80
2012,06,25,10,39,16.90
2012,06,25,10,40,17.00
2012,06,25,10,41,17.00
2012,06,25,10,42,17.10
2012,06,25,10,43,17.00
2012,06,25,10,44,17.00
2012,06,25,10,45,16.90
2012,06,25,10,46,16.80
2012,06,25,10,47,16.70
2012,06,25,10,48,16.60
2012,06,25,10,49,16.50
2012,06,25,10,50,16.50
2012,06,25,10,51,16.50
2012,06,25,10,52,16.50
2012,06,25,10,53,16.60
2012,06,25,10,54,16.60
2012,06,25,10,55,16.70
2012,06,25,10,56,16.70
2012,06,25,10,57,16.70
2012,06,25,10,58,16.80
2012,06,25,10,59,16.90
2012,06,25,11,00,17.10
2012,06,25,11,01,17.10
2012,06,25,11,02,17.30
2012,06,25,11,03,17.40
2012,06,25,11,04,17.60
2012,06,25,11,05,17.70
2012,06,25,11,06,17.90
2012,06,25,11,07,17.90
2012,06,25,11,08,17.90
2012,06,25,11,09,18.00
2012,06,25,11,10,18.10
2012,06,25,11,11,18.20
2012,06,25,11,12,18.30
2012,06,25,11,13,18.40
2012,06,25,11,14,18.50
2012,06,25,11,15,18.60
2012,06,25,11,16,18.70
2012,06,25,11,17,18.80
2012,06,25,11,18,18.80
2012,06,25,11,19,18.70
2012,06,25,11,20,18.60
2012,06,25,11,21,18.50
2012,06,25,11,22,18.40
2012,06,25,11,23,18.20
2012,06,25,11,24,18.10
2012,06,25,11,25,18.10
2012,06,25,11,26,18.10
2012,06,25,11,27,18.10
2012,06,25,11,28,18.10
2012,06,25,11,29,18.20
2012,06,25,11,30,18.20
2012,06,25,11,31,18.20
2012,06,25,11,32,18.20
2012,06,25,11,33,18.20
2012,06,25,11,34,18.20
2012,06,25,11,35,18.20
2012,06,25,11,36,18.30
2012,06,25,11,37,18.30
2012,06,25,11,38,18.30
2012,06,25,11,39,18.30
2012,06,25,11,40,18.30
2012,06,25,11,41,18.30
2012,06,25,11,42,18.30
2012,06,25,11,43,18.30
2012,06,25,11,44,18.40
2012,06,25,11,45,18.40
2012,06,25,11,46,18.40
2012,06,25,11,47,18.50
2012,06,25,11,48,18.60
2012,06,25,11,49,18.60
2012,06,25,11,50,18.70
2012,06,25,11,51,18.90
2012,06,25,11,52,19.00
2012,06,25,11,53,19.10
2012,06,25,11,54,19.20
2012,06,25,11,55,19.20
2012,06,25,11,56,19.20
2012,06,25,11,57,19.20
2012,06,25,11,58,19.20
2012,06,25,11,59,19.20
2012,06,25,12,00,19.10
2012,06,25,12,01,19.20
2012,06,25,12,02,19.30
2012,06,25,12,03,19.40
2012,06,25,12,04,19.60
2012,06,25,12,05,19.70
2012,06,25,12,06,19.90
2012,06,25,12,07,20.00
2012,06,25,12,08,20.10
2012,06,25,12,09,20.10
2012,06,25,12,10,20.20
2012,06,25,12,11,20.30
2012,06,25,12,12,20.30
2012,06,25,12,13,20.30
2012,06,25,12,14,20.20
2012,06,25,12,15,20.20
2012,06,25,12,16,20.20
2012,06,25,12,17,20.20
2012,06,25,12,18,20.30
2012,06,25,12,19,20.40
2012,06,25,12,20,20.50
2012,06,25,12,21,20.60
2012,06,25,12,22,20.70
2012,06,25,12,23,20.70
2012,06,25,12,24,20.80
2012,06,25,12,25,20.80
2012,06,25,12,26,20.90
2012,06,25,12,27,20.90
2012,06,25,12,28,21.00
2012,06,25,12,29,21.10
2012,06,25,12,30,21.20
2012,06,25,12,31,21.30
2012,06,25,12,32,21.40
2012,06,25,12,33,21.40
2012,06,25,12,34,21.40
2012,06,25,12,35,21.20
2012,06,25,12,36,21.10
2012,06,25,12,37,20.90
2012,06,25,12,38,20.80
2012,06,25,12,39,20.70
2012,06,25,12,40,20.60
2012,06,25,12,41,20.50
2012,06,25,12,42,20.30
2012,06,25,12,43,20.20
2012,06,25,12,44,20.20
2012,06,25,12,45,20.20
2012,06,25,12,46,20.30
2012,06,25,12,47,20.40
2012,06,25,12,48,20.50
2012,06,25,12,49,20.60
2012,06,25,12,50,20.70
2012,06,25,12,51,20.80
2012,06,25,12,52,21.00
2012,06,25,12,53,21.10
2012,06,25,12,54,21.20
2012,06,25,12,55,21.30
2012,06,25,12,56,21.30
2012,06,25,12,57,21.40
2012,06,25,12,58,21.40
2012,06,25,12,59,21.50
2012,06,25,13,00,21.60
2012,06,25,13,01,21.70
2012,06,25,13,02,21.80
2012,06,25,13,03,21.80
2012,06,25,13,04,21.90
2012,06,25,13,05,21.90
2012,06,25,13,06,21.80
2012,06,25,13,07,21.70
2012,06,25,13,08,21.50
2012,06,25,13,09,21.30
2012,06,25,13,10,21.10
2012,06,25,13,11,21.00
2012,06,25,13,12,20.80
2012,06,25,13,13,20.70
2012,06,25,13,14,20.70
2012,06,25,13,15,20.60
2012,06,25,13,16,20.60
2012,06,25,13,17,20.50
2012,06,25,13,18,20.50
2012,06,25,13,19,20.50
2012,06,25,13,20,20.60
2012,06,25,13,21,20.70
2012,06,25,13,22,20.70
2012,06,25,13,23,20.70
2012,06,25,13,24,20.70
2012,06,25,13,25,20.70
2012,06,25,13,26,20.70
2012,06,25,13,27,20.80
2012,06,25,13,28,20.80
2012,06,25,13,29,20.90
2012,06,25,13,30,20.90
2012,06,25,13,31,21.10
2012,06,25,13,32,21.20
2012,06,25,13,33,21.30
2012,06,25,13,34,21.30
2012,06,25,13,35,21.30
2012,06,25,13,36,21.20
2012,06,25,13,37,21.10
2012,06,25,13,38,21.10
2012,06,25,13,39,21.10
2012,06,25,13,40,21.10
2012,06,25,13,41,21.00
2012,06,25,13,42,21.00
2012,06,25,13,43,21.10
2012,06,25,13,44,21.20
2012,06,25,13,45,21.30
2012,06,25,13,46,21.40
2012,06,25,13,47,21.50
2012,06,25,13,48,21.70
2012,06,25,13,49,21.80
2012,06,25,13,50,22.00
2012,06,25,13,51,22.10
2012,06,25,13,52,22.20
2012,06,25,13,53,22.10
2012,06,25,13,54,22.00
2012,06,25,13,55,21.90
2012,06,25,13,56,21.80
2012,06,25,13,57,21.70
2012,06,25,13,58,21.70
2012,06,25,13,59,21.60
2012,06,25,14,00,21.60
2012,06,25,14,01,21.60
2012,06,25,14,02,21.60
2012,06,25,14,03,21.60
2012,06,25,14,04,21.60
2012,06,25,14,05,21.60
2012,06,25,14,06,21.60
2012,06,25,14,07,21.40
2012,06,25,14,08,21.30
2012,06,25,14,09,21.20
2012,06,25,14,10,21.10
2012,06,25,14,11,21.00
2012,06,25,14,12,20.90
2012,06,25,14,13,20.80
2012,06,25,14,14,20.80
2012,06,25,14,15,20.80
2012,06,25,14,16,20.80
2012,06,25,14,17,20.80
2012,06,25,14,18,20.70
2012,06,25,14,19,20.60
2012,06,25,14,20,20.50
2012,06,25,14,21,20.30
2012,06,25,14,22,20.20
2012,06,25,14,23,20.00
2012,06,25,14,24,19.90
2012,06,25,14,25,19.90
2012,06,25,14,26,19.90
2012,06,25,14,27,19.90
2012,06,25,14,28,19.80
2012,06,25,14,29,19.80
2012,06,25,14,30,19.80
2012,06,25,14,31,19.80
2012,06,25,14,32,19.70
2012,06,25,14,33,19.70
2012,06,25,14,34,19.70
2012,06,25,14,35,19.80
2012,06,25,14,36,19.80
2012,06,25,14,37,19.70
2012,06,25,14,38,19.70
2012,06,25,14,39,19.70
2012,06,25,14,40,19.70
2012,06,25,14,41,19.70
2012,06,25,14,42,19.70
2012,06,25,14,43,19.80
2012,06,25,14,44,19.80
2012,06,25,14,45,19.80
2012,06,25,14,46,19.80
2012,06,25,14,47,19.80
2012,06,25,14,48,19.80
2012,06,25,14,49,19.80
2012,06,25,14,50,19.80
2012,06,25,14,51,19.70
2012,06,25,14,52,19.70
2012,06,25,14,53,19.60
2012,06,25,14,54,19.50
2012,06,25,14,55,19.40
2012,06,25,14,56,19.30
2012,06,25,14,57,19.20
2012,06,25,14,58,19.20
2012,06,25,14,59,19.10
2012,06,25,15,00,19.00
2012,06,25,15,01,18.90
2012,06,25,15,02,18.90
2012,06,25,15,03,18.80
2012,06,25,15,04,18.80
2012,06,25,15,05,18.70
2012,06,25,15,06,18.70
2012,06,25,15,07,18.70
2012,06,25,15,08,18.70
2012,06,25,15,09,18.70
2012,06,25,15,10,18.70
2012,06,25,15,11,18.70
2012,06,25,15,12,18.70
2012,06,25,15,13,18.70
2012,06,25,15,14,18.70
2012,06,25,15,15,18.70
2012,06,25,15,16,18.60
2012,06,25,15,17,18.60
2012,06,25,15,18,18.60
2012,06,25,15,19,18.60
2012,06,25,15,20,18.60
2012,06,25,15,21,18.60
2012,06,25,15,22,18.60
2012,06,25,15,23,18.60
2012,06,25,15,24,18.50
2012,06,25,15,25,18.50
2012,06,25,15,26,18.50
2012,06,25,15,27,18.50
2012,06,25,15,28,18.40
2012,06,25,15,29,18.40
2012,06,25,15,30,18.40
2012,06,25,15,31,18.40
2012,06,25,15,32,18.40
2012,06,25,15,33,18.40
2012,06,25,15,34,18.40
2012,06,25,15,35,18.40
2012,06,25,15,36,18.40
2012,06,25,15,37,18.40
2012,06,25,15,38,18.40
2012,06,25,15,39,18.40
2012,06,25,15,40,18.40
2012,06,25,15,41,18.40
2012,06,25,15,42,18.50
2012,06,25,15,43,18.50
2012,06,25,15,44,18.50
2012,06,25,15,45,18.60
2012,06,25,15,46,18.60
2012,06,25,15,47,18.60
2012,06,25,15,48,18.70
2012,06,25,15,49,18.70
2012,06,25,15,50,18.80
2012,06,25,15,51,18.80
2012,06,25,15,52,18.80
2012,06,25,15,53,18.80
2012,06,25,15,54,18.90
2012,06,25,15,55,18.90
2012,06,25,15,56,19.00
2012,06,25,15,57,19.00
2012,06,25,15,58,19.00
2012,06,25,15,59,19.10
2012,06,25,16,00,19.10
2012,06,25,16,01,19.20
2012,06,25,16,02,19.20
2012,06,25,16,03,19.30
2012,06,25,16,04,19.30
2012,06,25,16,05,19.30
2012,06,25,16,06,19.40
2012,06,25,16,07,19.40
2012,06,25,16,08,19.40
2012,06,25,16,09,19.40
2012,06,25,16,10,19.40
2012,06,25,16,11,19.50
2012,06,25,16,12,19.50
2012,06,25,16,13,19.60
2012,06,25,16,14,19.60
2012,06,25,16,15,19.60
2012,06,25,16,16,19.60
2012,06,25,16,17,19.60
2012,06,25,16,18,19.60
2012,06,25,16,19,19.70
2012,06,25,16,20,19.80
2012,06,25,16,21,19.90
2012,06,25,16,22,20.00
2012,06,25,16,23,20.10
2012,06,25,16,24,20.10
2012,06,25,16,25,20.10
2012,06,25,16,26,20.10
2012,06,25,16,27,20.10
2012,06,25,16,28,20.20
2012,06,25,16,29,20.20
2012,06,25,16,30,20.20
2012,06,25,16,31,20.30
2012,06,25,16,32,20.30
2012,06,25,16,33,20.40
2012,06,25,16,34,20.40
2012,06,25,16,35,20.40
2012,06,25,16,36,20.40
2012,06,25,16,37,20.40
2012,06,25,16,38,20.40
2012,06,25,16,39,20.50
2012,06,25,16,40,20.50
2012,06,25,16,41,20.60
2012,06,25,16,42,20.60
2012,06,25,16,43,20.60
2012,06,25,16,44,20.60
2012,06,25,16,45,20.50
2012,06,25,16,46,20.50
2012,06,25,16,47,20.40
2012,06,25,16,48,20.40
2012,06,25,16,49,20.50
2012,06,25,16,50,20.50
2012,06,25,16,51,20.50
2012,06,25,16,52,20.60
2012,06,25,16,53,20.60
2012,06,25,16,54,20.70
2012,06,25,16,55,20.70
2012,06,25,16,56,20.80
2012,06,25,16,57,20.90
2012,06,25,16,58,21.00
2012,06,25,16,59,21.00
2012,06,25,17,00,21.10
2012,06,25,17,01,21.20
2012,06,25,17,02,21.20
2012,06,25,17,03,21.30
2012,06,25,17,04,21.40
2012,06,25,17,05,21.40
2012,06,25,17,06,21.40
2012,06,25,17,07,21.40
2012,06,25,17,08,21.40
2012,06,25,17,09,21.40
2012,06,25,17,10,21.40
2012,06,25,17,11,21.40
2012,06,25,17,12,21.40
2012,06,25,17,13,21.40
2012,06,25,17,14,21.30
2012,06,25,17,15,21.30
2012,06,25,17,16,21.20
2012,06,25,17,17,21.20
2012,06,25,17,18,21.20
2012,06,25,17,19,21.10
2012,06,25,17,20,21.10
2012,06,25,17,21,21.10
2012,06,25,17,22,21.00
2012,06,25,17,23,21.00
2012,06,25,17,24,20.90
2012,06,25,17,25,20.90
2012,06,25,17,26,20.80
2012,06,25,17,27,20.70
2012,06,25,17,28,20.70
2012,06,25,17,29,20.70
2012,06,25,17,30,20.70
2012,06,25,17,31,20.60
2012,06,25,17,32,20.60
2012,06,25,17,33,20.50
2012,06,25,17,34,20.50
2012,06,25,17,35,20.40
2012,06,25,17,36,20.40
2012,06,25,17,37,20.40
2012,06,25,17,38,20.40
2012,06,25,17,39,20.40
2012,06,25,17,40,20.50